Wind_Speed
15 15 15 15 14 13 13 12 12 11 11 10 10 9 9 8 7 7 6 5 5 4 4 4 4 4 4 3 3 3 4 4 4 5 5 5 5 5 6 6 6 6 6 7 7 7 7 7 7 7 7 8 8 8 9 9 9 10 10 12 14 13 11 11 9 11 14 14 18 23 20 19 20 20 18 18 18 17 17 17 16 16 17 19 20 22 23 24
16 16 16 16 16 15 14 14 13 13 12 12 11 11 10 9 9 8 7 6 6 5 4 4 4 4 5 4 4 5 5 5 6 7 7 6 5 5 7 7 7 7 7 7 7 7 7 8 8 8 8 9 9 9 10 10 10 10 10 13 14 12 12 16 16 18 20 17 20 23 20 19 19 21 20 18 19 17 15 15 17 16 18 20 20 21 21 22
17 16 16 16 16 15 15 14 14 14 14 13 13 12 12 11 10 9 8 7 7 6 5 5 5 5 6 5 6 6 6 7 7 7 7 6 6 6 7 7 7 7 7 8 8 7 7 8 8 9 9 9 10 10 11 12 11 11 13 13 14 14 15 19 20 20 20 19 20 22 20 20 19 20 20 18 17 13 12 15 17 18 20 20 19 20 20 20
16 15 15 14 14 13 13 13 13 13 13 13 12 12 12 11 11 10 9 9 8 7 6 6 6 6 6 6 6 6 7 8 7 7 7 8 8 8 8 7 7 7 8 8 8 7 7 7 8 9 9 9 12 12 13 14 10 13 17 14 15 17 17 20 21 18 19 19 19 20 20 20 19 18 19 19 14 9 14 18 18 20 22 22 20 20 20 20
13 12 12 11 11 11 11 10 10 11 10 10 10 10 10 10 9 9 9 9 8 8 7 7 6 6 6 6 7 7 7 7 7 8 9 9 9 10 9 8 8 8 8 8 8 8 7 7 8 9 9 10 13 12 14 15 12 16 17 14 17 18 17 20 20 18 19 19 18 19 19 19 19 20 19 20 18 15 18 19 19 21 21 23 22 21 21 21
10 10 10 10 9 9 9 9 9 8 8 8 8 8 8 8 8 8 7 8 8 8 8 8 7 7 7 6 7 7 7 6 8 10 10 10 10 10 10 10 9 8 9 9 9 8 7 8 8 9 10 11 13 12 14 15 14 15 14 16 18 16 17 19 18 18 18 18 18 18 19 19 20 21 22 21 21 20 21 20 22 23 22 24 22 22 22 21
9 9 9 9 9 9 8 8 8 8 8 8 7 7 7 8 7 7 7 7 7 8 8 8 8 8 8 8 8 8 8 8 10 10 10 11 11 11 11 11 11 10 9 9 10 10 9 9 9 10 11 11 12 13 14 15 15 15 14 17 17 15 17 18 17 18 18 18 19 19 20 21 20 21 24 24 22 22 23 23 24 23 23 23 22 22 21 21
9 9 8 9 9 9 9 9 9 9 9 8 8 8 8 8 8 8 8 8 8 8 8 8 9 8 8 9 9 9 10 10 10 11 11 11 11 11 12 11 12 11 10 10 10 10 10 10 10 11 11 11 12 14 15 14 15 15 14 16 16 16 17 18 19 19 19 20 20 21 22 23 21 21 25 25 23 22 22 23 23 22 20 19 19 20 20 21
9 9 9 9 9 9 10 10 10 10 10 9 9 9 9 9 9 9 10 10 9 9 9 9 9 8 8 9 9 10 11 11 11 12 11 11 11 12 11 11 11 11 11 10 10 10 10 11 11 11 11 13 14 15 14 13 13 15 16 17 17 18 19 19 21 20 21 22 21 21 21 21 18 19 22 22 21 21 21 21 21 20 19 18 18 19 20 22
9 9 9 10 10 10 9 9 9 9 9 9 9 8 8 9 9 10 10 10 10 10 10 10 9 9 8 8 8 10 11 11 12 12 12 12 12 12 12 11 11 11 11 10 10 10 10 11 11 11 13 14 14 14 14 14 14 17 17 17 18 19 21 21 22 22 21 20 18 16 17 17 17 18 20 21 19 18 17 18 18 18 18 18 18 20 22 23
9 9 9 9 10 9 9 8 8 8 8 8 8 8 8 9 10 11 11 11 11 11 11 10 10 9 9 8 8 9 11 11 11 11 12 12 12 12 12 11 11 11 11 11 10 10 10 11 11 12 13 13 14 15 17 17 16 17 18 19 21 21 21 21 21 19 17 15 14 15 17 18 17 16 17 16 15 14 15 15 15 15 16 16 18 19 21 22
8 8 8 9 9 8 7 7 7 7 7 7 7 8 9 10 12 12 12 12 11 11 11 10 10 10 9 9 9 9 11 11 11 11 11 12 12 12 12 11 11 11 11 11 11 11 11 11 12 13 13 14 17 18 18 18 18 19 19 20 21 20 21 20 15 12 13 14 15 15 15 16 15 12 13 13 14 16 16 15 16 17 18 18 19 20 21 21
8 8 8 7 7 6 6 6 6 7 7 7 8 9 10 12 13 13 12 11 10 10 10 10 10 10 10 10 10 10 10 11 11 11 11 11 11 11 11 11 11 10 10 11 11 12 12 12 13 14 14 16 17 18 18 19 19 20 20 20 18 15 14 13 11 12 16 16 16 15 10 12 16 12 12 14 15 16 16 17 19 21 21 21 21 21 21 21
7 7 7 6 6 6 6 6 7 8 8 9 9 10 11 12 12 11 10 9 9 9 8 9 8 8 9 10 9 9 9 10 10 11 11 11 11 10 10 10 10 11 11 11 12 12 12 13 14 15 15 16 17 17 19 19 18 19 18 16 12 7 7 11 14 15 17 15 15 15 7 11 14 11 12 13 15 18 20 23 24 24 24 24 23 23 22 22
6 6 6 6 6 6 6 7 8 9 9 10 10 11 11 11 11 10 8 8 8 7 7 7 7 7 8 8 8 9 10 10 10 11 11 12 11 11 10 10 11 11 12 12 13 12 13 14 14 15 15 15 17 17 17 17 17 16 12 8 6 4 5 12 15 13 14 15 16 12 5 11 15 13 14 17 19 22 23 24 25 24 25 25 25 25 25 25
7 7 7 7 7 7 7 8 9 9 10 10 10 10 10 9 8 8 7 7 6 6 6 6 6 6 6 7 8 9 10 11 10 10 10 11 11 11 11 11 11 11 12 12 12 12 12 12 12 13 13 14 15 15 15 13 11 8 5 6 8 6 8 11 13 13 15 15 13 10 6 12 17 16 17 19 21 22 22 23 24 25 25 25 25 25 25 25
8 7 7 6 6 6 7 7 8 9 9 9 9 9 8 7 7 7 8 7 6 7 6 7 7 5 5 7 8 8 9 10 11 11 10 11 11 11 11 11 11 10 10 10 11 11 11 11 11 11 10 12 13 12 12 9 6 5 7 10 9 8 9 8 11 14 15 12 8 9 11 12 15 17 18 20 22 23 24 25 25 25 25 24 23 23 23 23
7 6 5 5 5 6 6 7 8 8 9 9 8 8 7 6 6 7 7 7 7 7 6 8 9 5 5 8 8 9 11 12 12 12 12 12 11 11 11 11 11 10 10 10 10 11 11 10 9 5 5 10 12 8 6 7 8 10 13 11 8 9 8 5 10 13 13 13 8 8 14 16 17 20 21 22 23 24 24 24 23 22 21 21 20 20 20 20
6 6 6 6 6 7 8 8 9 9 9 8 8 8 7 7 7 8 8 7 7 7 7 9 10 6 6 9 11 13 14 13 13 12 12 12 11 11 11 11 11 11 11 10 10 10 9 8 5 3 6 9 10 9 7 8 9 10 11 9 9 9 5 7 12 11 13 15 10 11 15 18 19 20 21 22 21 21 20 20 20 20 20 20 20 18 18 18
7 7 7 8 8 9 9 10 10 10 9 9 8 7 7 8 9 8 8 6 6 9 10 10 11 9 8 10 12 14 13 13 12 11 11 11 11 12 11 11 11 11 11 9 9 9 7 4 2 3 7 9 10 9 9 8 8 9 9 9 8 5 5 11 13 12 17 15 11 17 17 17 19 18 19 19 18 18 17 19 19 19 20 19 19 18 17 17
8 8 9 9 9 9 10 10 10 10 10 10 9 9 8 8 8 6 5 4 6 10 11 12 12 10 11 12 12 13 13 12 12 13 13 12 12 11 11 11 10 8 9 8 7 6 4 3 4 7 9 9 9 9 9 9 10 11 10 9 6 5 11 13 13 17 22 14 10 18 16 16 18 15 15 14 14 17 17 18 18 17 18 17 17 17 16 16
9 9 9 9 8 8 8 8 9 9 10 11 12 12 10 7 6 4 2 4 8 11 12 14 13 11 13 12 12 13 12 10 11 12 12 12 11 10 9 9 7 6 6 5 5 3 4 6 9 10 9 9 10 11 12 12 12 11 9 8 6 11 16 12 14 20 22 11 6 15 17 16 15 11 10 12 14 16 17 16 17 17 17 16 16 16 15 16
8 8 9 9 9 8 7 7 8 8 10 12 13 12 10 8 6 3 3 5 10 11 13 15 13 12 13 12 13 12 9 9 9 10 10 10 10 9 8 8 7 7 5 4 3 2 6 11 11 10 10 11 12 12 13 11 8 8 11 12 12 16 16 12 15 19 18 8 2 10 17 15 12 9 10 14 16 16 16 16 17 16 16 16 16 15 15 16
6 7 9 10 11 11 9 6 6 7 9 11 11 11 10 9 6 3 3 5 11 13 14 14 12 13 13 13 13 11 9 11 11 10 11 11 10 9 9 9 8 8 7 5 4 6 10 12 11 11 13 13 12 12 13 11 6 9 14 17 17 17 16 14 17 17 13 5 3 7 10 4 7 10 11 15 17 17 16 17 18 17 17 17 17 16 16 17
5 6 9 10 12 13 10 6 5 6 9 9 10 11 10 9 7 3 2 2 11 15 14 13 12 13 14 14 14 11 9 12 12 13 13 12 11 11 10 9 8 9 10 7 6 9 12 12 11 12 13 13 12 13 15 15 10 9 14 18 17 16 16 14 14 13 7 2 6 9 4 2 3 9 11 14 16 16 16 18 18 18 17 17 16 17 18 18
5 5 8 10 11 12 10 7 5 7 8 9 9 10 9 8 6 3 2 2 7 15 16 14 14 15 14 14 16 12 9 12 15 15 14 11 12 12 11 10 9 9 10 6 5 9 12 11 12 12 13 13 15 15 16 17 12 7 13 18 16 15 14 11 10 9 6 2 4 9 7 3 0 4 10 13 15 16 16 19 19 18 18 17 17 18 19 20
5 5 8 10 11 11 10 8 7 8 9 9 10 10 8 7 4 2 1 3 5 14 16 15 14 15 15 15 16 13 10 13 15 14 13 12 14 13 11 11 9 10 10 6 5 8 10 10 10 11 13 15 16 16 16 16 12 9 16 19 15 14 11 9 11 7 5 3 1 9 15 9 1 0 9 12 16 19 19 20 21 20 19 18 18 19 20 21
4 5 7 9 10 10 9 9 9 9 10 10 10 10 7 6 3 1 1 1 5 12 14 14 14 14 16 16 17 15 12 13 14 15 14 13 14 12 11 11 9 11 11 6 6 7 8 10 11 12 15 16 16 15 15 16 14 13 18 17 13 12 8 8 11 7 5 3 2 12 20 11 0 3 9 10 10 18 23 24 23 22 20 20 20 21 21 22
4 5 7 8 9 9 9 9 10 11 11 11 10 9 6 4 2 3 2 0 6 10 11 13 13 13 15 15 16 15 13 14 15 16 15 14 14 11 10 10 8 12 13 7 7 9 9 11 12 13 17 17 14 14 14 17 18 17 19 19 13 11 10 8 9 6 5 2 1 13 19 11 2 4 5 4 4 13 23 26 25 23 22 22 23 23 23 24
5 6 7 8 9 9 9 10 12 12 12 11 9 7 4 3 1 3 1 2 5 9 9 11 12 12 14 13 14 14 13 14 15 15 14 14 14 10 10 10 6 10 15 11 7 8 9 11 13 15 17 16 13 15 17 18 21 21 21 21 13 9 11 7 5 6 6 2 5 12 17 12 3 3 2 8 10 17 24 26 26 24 24 25 25 25 26 26
7 7 7 8 9 9 10 11 12 13 12 9 6 4 3 5 3 2 2 2 4 8 8 10 12 12 13 14 14 14 13 13 13 14 15 14 12 9 9 12 7 4 11 12 6 4 6 11 16 17 16 16 14 15 18 19 23 24 21 20 12 7 8 6 5 8 6 3 6 13 18 12 4 2 9 17 20 23 24 24 25 26 27 28 26 26 27 28
7 6 6 8 9 10 11 12 12 12 10 6 4 2 3 5 7 6 4 2 4 8 7 9 13 13 15 15 15 15 14 15 16 16 17 17 16 15 15 18 14 5 5 10 7 2 2 9 18 18 16 18 17 16 16 15 22 26 23 22 15 6 8 7 6 8 6 5 7 13 15 8 4 8 16 21 24 24 23 22 25 28 28 26 24 24 26 28
5 5 6 7 9 11 11 12 11 9 6 5 4 4 4 4 6 7 7 5 5 7 6 8 13 13 15 16 15 15 14 15 17 16 18 18 18 19 18 17 16 9 6 9 8 3 4 6 15 19 16 17 19 20 20 15 18 25 22 18 13 6 5 5 5 6 6 8 12 13 9 4 5 12 18 22 24 22 21 24 26 27 26 24 24 24 25 27
4 5 7 9 10 11 10 9 8 6 5 5 5 4 7 7 6 6 8 8 8 8 5 8 13 12 14 16 15 15 15 15 16 15 16 16 17 18 17 15 15 11 8 7 7 7 2 5 14 19 15 15 17 19 22 16 12 16 17 11 8 6 4 4 6 7 7 12 15 10 4 3 7 14 21 23 21 19 22 26 26 25 24 25 26 26 26 28
5 6 8 9 9 9 8 7 7 7 6 7 5 6 9 9 6 6 8 8 9 10 6 7 13 12 12 15 15 15 14 14 15 15 15 17 17 17 16 15 14 13 11 7 5 5 3 4 14 16 12 12 14 17 21 17 8 10 15 12 7 6 4 7 10 10 10 13 10 4 5 9 12 19 23 20 18 21 25 26 26 25 26 27 29 30 29 30
6 8 8 8 7 7 7 7 8 7 8 6 4 9 14 10 7 7 8 8 10 12 8 7 11 12 11 14 15 14 12 13 14 13 13 15 16 16 15 14 14 14 12 9 7 5 2 3 12 16 12 10 12 16 19 18 12 9 13 13 9 7 5 7 10 10 10 9 7 6 9 11 12 15 18 17 20 24 27 28 28 28 29 32 33 35 35 36
7 7 7 7 7 8 8 9 7 8 10 6 4 13 16 12 10 10 9 10 10 12 11 8 9 12 12 13 14 13 12 12 13 10 9 11 12 13 14 12 13 13 12 9 9 7 2 2 8 15 13 9 11 16 17 18 16 10 10 14 11 7 5 6 7 8 8 6 8 11 13 13 12 10 13 18 22 24 25 26 28 31 34 36 38 39 40 41
6 6 7 7 8 9 9 9 8 9 9 6 9 17 14 11 12 10 10 11 10 11 13 11 10 12 13 12 13 13 11 12 13 9 7 9 9 11 12 12 12 12 11 9 9 9 5 1 6 11 12 9 10 14 14 15 17 13 11 15 13 5 4 7 7 7 7 5 7 11 13 14 10 7 11 16 18 19 19 21 29 35 38 40 41 41 42 43
6 7 7 8 9 9 7 10 12 10 5 6 14 16 12 12 13 11 11 12 11 12 13 13 12 12 13 13 13 14 12 12 14 10 7 7 7 10 11 11 11 11 11 9 8 9 9 3 4 9 11 9 8 9 9 12 15 15 12 13 13 6 5 9 6 4 6 6 7 10 12 9 6 10 17 19 20 22 21 25 33 38 41 42 42 42 41 42
6 7 7 8 8 8 10 13 12 6 4 10 16 14 12 13 13 12 12 12 12 13 13 13 13 13 13 14 13 13 11 11 12 10 8 8 6 8 11 10 11 11 10 10 9 9 11 7 3 8 9 7 6 8 9 11 13 15 13 11 12 9 6 8 6 6 7 7 5 7 9 9 11 19 26 25 24 25 28 33 38 39 42 42 40 41 42 42
7 6 8 8 7 10 12 11 9 8 10 15 15 14 14 13 13 13 13 12 13 13 13 13 13 13 13 13 13 13 10 9 11 9 9 9 7 7 9 10 10 10 10 11 11 10 10 8 4 6 6 5 7 11 12 12 14 15 13 10 10 8 7 7 5 5 7 8 8 9 9 13 21 27 27 26 27 31 37 40 41 42 43 41 41 42 42 42
7 7 10 9 8 11 10 7 10 13 14 15 14 14 14 13 14 14 13 13 13 13 13 13 13 13 14 13 13 12 9 8 10 9 7 8 7 7 8 10 10 11 10 11 11 10 9 10 7 4 5 7 10 12 11 13 16 17 15 13 9 7 6 5 5 9 11 12 13 12 11 15 23 26 25 27 32 37 40 41 42 44 44 43 43 43 42 43
7 9 10 8 10 12 9 8 13 14 14 15 15 15 14 14 14 14 14 14 13 13 13 13 13 14 14 13 12 12 9 7 8 8 6 6 7 7 8 10 10 11 11 10 11 10 9 12 9 6 8 10 11 11 10 13 17 15 16 18 13 8 8 8 9 11 12 12 13 11 11 14 19 23 26 31 36 39 40 42 44 45 45 44 44 43 43 44
7 10 10 10 12 10 8 11 14 13 14 16 15 15 15 15 14 14 14 14 13 13 12 13 14 14 14 13 12 11 10 7 6 6 4 4 6 7 8 10 10 11 12 10 10 10 8 10 10 7 8 7 8 8 8 10 13 12 17 23 19 13 12 11 9 8 9 11 9 8 11 16 19 25 30 33 36 38 39 38 38 41 43 43 42 42 42 43
7 9 11 13 14 8 7 14 15 13 15 15 15 16 14 14 14 13 13 13 13 13 12 13 14 13 14 13 12 11 10 8 6 4 4 3 4 5 7 9 10 10 11 11 11 11 9 10 10 6 6 6 6 7 9 12 15 16 21 26 23 20 16 12 10 9 9 10 9 12 21 29 28 27 30 29 27 30 34 35 38 41 41 41 40 40 43 44
6 8 10 13 13 10 12 17 15 13 14 14 15 16 14 14 14 13 13 13 13 13 12 13 14 13 14 13 12 11 10 9 6 4 4 3 3 5 6 8 10 10 10 11 12 12 10 11 11 8 9 11 10 10 14 19 20 19 21 24 25 23 19 16 14 12 13 15 18 20 24 30 35 34 31 27 24 29 36 40 44 45 43 41 40 42 45 45
8 9 8 9 11 13 15 17 15 14 14 13 14 15 13 13 13 13 13 12 13 13 12 13 14 13 13 13 12 11 10 9 7 5 4 3 3 5 4 6 9 10 11 11 11 12 11 11 12 12 12 14 14 13 16 21 22 23 24 25 25 23 21 21 20 19 17 15 21 25 22 26 38 38 29 25 30 36 41 44 46 46 45 45 44 44 46 44
9 11 10 10 11 13 15 16 15 15 13 12 14 14 13 13 13 13 13 12 13 13 13 13 13 13 13 13 12 11 10 8 6 5 4 3 4 5 5 6 7 9 11 11 11 13 11 10 13 15 14 14 14 14 16 20 22 26 27 26 24 23 23 24 24 26 22 19 26 36 32 32 39 37 27 27 35 40 43 46 46 45 46 47 46 46 46 43
10 11 12 12 12 14 15 15 14 14 12 12 13 14 13 13 13 13 13 13 13 13 13 13 12 12 13 13 12 11 9 7 6 5 4 3 3 5 5 5 6 8 11 11 12 12 11 13 16 17 17 15 13 16 19 21 24 27 27 23 21 21 23 25 26 27 26 28 35 38 35 37 41 35 28 29 35 41 46 49 48 46 48 49 48 46 45 42
11 12 12 11 13 15 15 14 13 12 12 13 13 14 14 14 14 13 13 14 13 13 13 12 12 12 12 12 12 10 8 6 4 4 4 3 2 3 5 5 6 8 9 11 13 13 13 15 15 18 21 18 16 21 23 23 27 28 22 18 18 20 22 25 27 27 28 32 36 33 34 42 40 28 26 32 36 43 50 51 51 50 50 49 47 45 43 40
12 13 13 11 12 15 14 13 12 11 12 14 14 15 15 15 15 14 13 14 13 13 13 12 12 13 12 12 11 10 8 6 4 4 4 3 3 3 4 6 7 8 9 11 13 14 15 16 17 21 21 16 17 23 25 26 28 23 15 17 20 22 23 24 26 28 29 32 35 33 36 43 37 28 33 41 42 45 49 51 52 52 49 47 45 42 40 39
13 15 15 10 11 15 14 11 11 10 11 13 14 15 16 15 15 14 14 14 13 13 13 12 12 13 13 12 11 10 8 6 4 4 4 5 4 4 5 7 7 9 10 11 13 15 16 17 19 19 16 14 18 24 27 25 19 12 15 23 24 23 25 26 28 30 30 32 34 36 40 42 34 29 35 44 47 49 51 53 52 51 49 46 43 40 40 40
Wind_Direction
89 88 86 85 83 83 84 85 85 84 82 79 76 72 71 68 64 60 54 48 43 34 26 16 6 359 356 357 347 341 337 327 323 320 318 315 313 316 312 309 306 304 300 296 294 290 288 286 282 279 275 273 270 264 262 259 254 252 250 248 252 259 267 262 262 273 270 278 287 286 292 298 301 301 302 305 300 297 296 292 287 284 280 277 278 279 282 284
86 83 82 81 80 78 77 78 78 78 76 74 71 69 67 66 63 59 53 48 42 33 24 13 360 348 341 338 332 333 330 323 321 318 314 308 308 316 316 312 305 301 297 294 290 287 289 290 288 288 283 279 277 274 271 268 263 259 251 248 255 263 263 258 262 275 278 281 286 290 295 297 299 301 305 307 301 305 305 291 284 281 277 278 280 282 282 283
85 82 80 79 79 77 74 72 71 70 69 66 64 63 61 59 57 54 51 44 39 33 22 13 5 351 342 339 333 331 329 326 323 319 316 307 304 308 311 309 303 297 292 288 283 282 284 288 291 289 286 277 276 280 275 275 275 264 254 251 260 263 264 270 275 281 284 287 289 294 298 298 300 302 304 303 304 312 296 281 285 285 284 285 285 282 280 278
82 80 77 75 74 72 69 66 64 63 60 57 54 53 50 48 46 44 42 37 34 29 20 14 7 356 345 340 338 335 330 328 322 319 317 310 305 303 303 300 297 293 289 286 281 280 280 287 290 288 288 277 279 285 277 279 278 267 267 261 260 265 271 280 285 289 290 292 293 296 299 300 302 303 303 301 301 287 272 282 289 288 289 289 285 279 275 273
74 71 68 64 62 59 57 54 52 52 50 47 43 40 37 34 32 30 27 24 21 18 15 9 3 359 347 338 335 335 333 324 317 316 312 308 306 304 304 299 296 294 291 291 285 284 286 290 292 290 292 281 284 288 279 282 276 273 281 272 267 277 282 283 290 296 295 296 297 298 300 301 303 302 300 296 290 276 276 284 284 284 285 284 281 274 271 270
64 59 54 49 46 42 40 36 34 33 33 32 28 25 22 17 15 12 10 7 5 4 3 359 356 353 346 337 329 327 325 311 309 313 309 306 305 303 304 303 302 301 298 297 293 291 290 294 298 295 295 287 286 284 280 284 280 279 284 278 281 287 284 287 295 298 297 300 299 300 301 300 301 300 296 292 289 285 282 279 279 282 281 279 276 269 269 269
56 49 42 35 31 26 23 19 17 16 14 14 11 9 4 360 357 354 352 349 349 348 345 345 345 343 341 334 325 321 314 306 309 310 307 305 304 303 304 303 303 303 302 301 298 297 296 298 300 296 297 292 286 283 282 285 283 281 278 279 289 290 287 293 297 297 301 303 301 302 300 298 299 296 293 292 290 287 283 281 281 281 280 277 271 266 265 266
48 41 33 25 18 13 8 5 4 2 360 359 358 356 350 346 342 339 337 333 333 330 326 326 327 328 330 324 319 315 309 309 310 306 303 301 299 301 301 301 299 299 300 300 299 300 300 299 296 294 293 286 282 286 288 290 287 285 283 285 292 292 292 296 296 299 302 301 301 301 297 296 297 292 290 290 290 287 284 283 281 280 281 278 270 263 261 265
39 32 24 17 10 3 359 357 355 352 350 350 349 347 343 339 335 332 328 323 322 319 315 314 313 313 312 309 308 305 304 307 307 303 302 298 298 298 298 299 297 298 297 297 299 300 300 297 295 291 286 284 285 287 289 289 287 288 291 293 295 295 296 296 296 299 300 300 300 299 297 297 298 293 289 291 292 289 286 283 281 280 279 276 270 263 263 268
32 25 17 11 4 359 357 353 353 351 348 346 344 344 342 339 334 329 323 318 316 313 311 309 307 305 300 298 296 294 298 301 299 298 299 299 300 299 299 300 298 297 295 295 296 295 295 293 292 291 288 288 289 288 288 288 286 289 293 293 294 295 296 296 297 299 299 299 300 301 301 301 301 293 288 293 294 290 288 287 286 284 281 277 272 269 269 269
26 19 12 6 2 359 355 353 354 353 350 347 346 345 343 338 332 326 319 314 311 310 309 310 310 308 305 302 295 293 297 297 297 299 301 301 302 300 299 299 296 295 295 297 296 293 292 291 292 292 290 291 290 290 291 291 290 291 293 293 294 294 294 296 298 299 299 301 304 308 308 305 301 291 286 291 292 289 291 293 292 290 289 286 283 280 277 274
18 13 6 1 358 356 352 351 352 351 349 345 344 342 338 335 330 326 322 318 315 314 314 315 317 317 317 313 306 303 303 303 305 306 305 305 305 304 302 298 295 296 298 300 298 296 295 292 292 290 289 290 290 292 292 292 293 292 293 294 297 299 297 299 302 301 303 307 306 311 316 306 298 288 285 289 287 287 290 292 294 297 299 296 292 287 282 277
9 4 359 353 348 346 343 342 343 346 343 339 337 335 333 333 331 329 327 327 327 325 324 325 326 325 322 319 317 315 315 316 316 315 314 314 313 309 306 303 301 301 301 301 299 297 294 293 291 289 288 287 287 289 289 291 292 293 296 297 299 299 288 291 306 309 307 309 305 314 321 290 288 288 285 290 290 288 290 296 300 302 302 298 293 289 283 279
1 356 350 342 333 329 328 329 330 333 333 331 330 330 333 334 335 334 331 333 335 338 338 335 335 334 329 326 325 323 324 324 321 320 320 318 316 313 311 307 304 302 301 299 298 295 293 292 290 290 290 288 290 290 291 295 297 299 302 302 306 301 269 283 301 309 312 312 308 319 323 272 282 291 286 291 293 295 297 298 299 297 296 294 290 287 283 279
351 343 335 328 325 321 321 320 318 321 325 326 327 330 336 341 344 344 341 340 339 342 343 343 344 337 334 336 334 330 328 329 329 325 322 320 318 317 315 309 304 301 299 297 296 295 294 293 293 295 295 294 295 296 301 303 301 306 309 308 321 323 305 302 303 309 316 316 313 325 323 265 279 288 287 293 296 298 300 298 298 297 295 293 290 287 283 280
342 333 323 318 321 323 321 318 318 321 323 326 331 336 343 349 353 353 355 353 351 355 351 352 348 339 349 351 338 333 332 334 336 332 327 324 320 319 317 312 308 302 300 300 299 299 299 300 299 298 299 300 299 301 309 300 285 301 324 315 314 307 316 314 303 306 316 321 322 323 296 268 283 294 297 301 304 304 304 303 302 301 300 298 295 292 288 283
352 343 333 326 328 330 331 332 332 332 333 337 339 342 350 355 357 357 358 360 5 10 11 10 2 1 18 2 343 340 342 339 337 335 331 327 322 320 318 313 311 307 306 306 305 306 304 304 305 310 313 306 300 305 314 307 284 310 331 325 317 311 321 321 308 315 324 336 340 318 303 295 301 308 308 307 307 307 306 306 305 305 305 304 302 299 294 288
12 7 8 6 4 2 359 357 354 351 351 350 349 351 353 356 360 355 355 9 20 20 26 26 24 29 7 357 354 347 343 340 336 333 330 329 325 321 319 316 315 313 313 311 310 310 307 308 313 324 312 297 304 321 331 324 313 312 318 323 320 318 328 327 316 323 334 343 344 319 312 313 312 309 308 308 308 310 310 312 314 316 317 315 313 309 302 296
30 32 35 37 34 31 25 18 11 5 0 359 357 353 349 354 356 354 3 18 26 34 40 31 30 32 355 347 349 344 340 336 334 333 333 333 331 328 326 322 319 319 321 320 317 316 312 307 300 279 288 307 328 346 345 329 320 316 320 330 326 323 338 326 320 326 343 347 329 312 312 308 310 310 311 313 314 317 319 323 326 325 326 324 321 317 310 302
45 46 44 45 43 41 38 31 22 15 10 6 359 351 350 354 352 358 14 20 26 39 41 28 21 17 358 346 343 341 339 336 337 340 342 340 335 334 331 328 328 325 327 324 313 314 309 290 285 312 326 343 351 351 351 343 335 339 344 346 333 328 335 322 322 328 342 350 307 302 309 302 310 316 316 321 323 329 332 331 332 331 331 329 324 320 312 304
53 52 49 48 46 45 41 34 28 24 20 16 11 9 5 358 352 0 19 32 38 39 34 22 14 7 358 349 345 344 344 345 347 345 346 344 339 338 335 337 340 330 326 328 323 314 305 310 347 355 357 356 359 3 1 354 353 1 360 350 339 333 332 323 326 331 338 347 290 292 303 302 315 324 324 334 338 339 339 336 338 337 335 332 325 319 310 302
55 53 49 44 40 36 28 23 22 20 20 20 17 13 7 1 358 1 29 55 45 39 28 17 10 6 359 351 349 349 350 354 350 343 343 344 345 347 347 348 351 344 345 0 10 339 334 8 14 13 12 9 16 11 0 359 4 13 8 355 345 332 334 329 326 333 339 346 271 283 302 308 319 331 338 349 349 343 343 344 344 342 337 331 322 315 306 297
50 47 40 32 24 13 2 1 3 7 13 14 11 8 7 9 10 25 88 70 45 35 24 15 10 6 0 356 354 355 1 4 354 350 354 357 2 6 4 4 7 13 32 74 75 15 17 29 30 26 20 18 19 1 357 11 358 351 1 359 344 334 340 332 321 332 336 340 200 283 305 318 323 331 350 355 354 349 348 352 350 344 337 328 319 309 299 291
36 34 27 19 11 1 350 342 343 355 3 4 4 3 3 6 11 33 117 75 41 29 17 13 12 7 4 6 5 6 17 11 5 11 13 13 12 12 11 8 15 27 36 44 25 28 47 46 32 23 22 22 18 357 1 21 350 319 342 352 343 338 343 328 321 335 330 322 50 312 298 327 326 317 344 357 356 352 352 356 351 342 334 324 316 306 296 288
18 22 17 9 4 359 355 349 340 349 354 354 356 355 354 356 2 16 169 95 31 19 12 10 11 11 11 15 13 14 19 12 13 15 12 14 10 11 15 10 17 27 21 21 22 37 51 44 26 25 30 23 13 3 3 13 7 322 330 348 347 341 339 329 334 346 325 282 28 353 304 145 327 310 332 355 357 354 353 353 347 338 329 318 309 300 292 285
5 12 9 2 358 358 3 8 358 350 350 346 345 344 344 344 349 12 160 147 16 6 8 10 10 13 13 16 15 12 9 9 14 11 6 13 12 11 16 14 21 22 12 13 24 41 47 36 26 30 32 19 7 8 4 7 16 347 336 347 346 341 337 339 358 360 341 331 35 25 1 314 246 305 325 349 354 353 353 349 343 334 325 315 305 297 290 285
360 3 2 354 351 355 2 8 1 348 343 340 338 338 337 335 339 20 170 183 1 359 5 12 12 12 10 10 12 14 14 7 9 11 9 13 13 14 20 19 23 23 18 24 37 44 44 34 30 28 23 13 7 11 8 9 19 354 345 349 346 347 346 2 16 1 338 313 190 36 4 323 219 334 329 346 347 345 349 346 339 332 323 314 305 298 291 286
351 354 351 345 347 350 352 355 351 343 340 339 338 338 336 332 339 61 167 194 360 356 3 12 11 8 6 5 7 14 19 8 7 14 16 15 12 14 22 20 24 29 29 47 77 68 45 31 25 18 17 16 16 19 14 15 17 353 349 356 355 358 0 14 18 355 318 290 227 19 3 337 356 42 351 352 340 334 339 340 336 330 323 315 307 300 293 287
338 337 335 337 340 341 342 345 344 342 340 340 340 339 338 341 12 117 136 45 360 359 5 9 6 4 4 4 6 10 12 10 15 19 16 15 13 11 17 16 27 39 37 49 79 71 48 32 20 13 20 22 22 25 20 17 13 360 1 4 358 4 5 3 15 354 304 290 15 9 4 352 33 82 19 347 305 320 328 332 333 328 323 317 309 302 295 290
326 322 324 330 333 336 339 340 341 340 338 339 341 339 349 15 79 145 91 14 2 5 6 5 6 7 6 6 7 11 13 15 22 24 21 22 19 17 15 12 16 33 33 36 58 67 49 27 18 20 26 25 24 22 17 14 11 9 10 3 340 338 356 347 356 349 308 327 43 7 356 341 319 120 347 311 318 326 326 328 330 330 326 320 313 307 300 294
315 314 319 325 330 335 336 335 336 334 336 341 344 349 40 53 73 129 41 14 1 1 0 2 7 10 10 11 13 16 17 19 23 25 26 29 28 29 28 26 30 33 32 31 30 56 45 22 20 25 27 27 28 19 7 6 11 13 16 11 349 330 353 334 336 355 336 356 24 355 345 331 292 301 313 315 323 326 325 325 327 328 325 321 319 314 306 300
313 317 324 328 333 334 332 331 332 334 341 350 359 30 100 67 56 62 38 12 352 351 354 4 9 12 13 13 17 19 17 19 21 20 23 26 27 31 34 36 43 54 28 19 5 339 352 7 15 19 22 25 27 23 12 2 8 15 21 20 15 7 359 345 344 356 336 328 343 337 334 324 292 303 308 312 318 320 321 322 324 325 325 325 325 321 313 305
333 334 330 332 334 331 330 331 335 344 359 15 41 82 117 88 59 52 40 39 15 357 2 11 11 16 16 16 19 18 17 20 19 18 22 28 33 39 41 40 41 41 19 13 11 348 278 316 4 14 17 18 20 23 20 8 8 19 24 22 21 17 357 347 342 338 321 313 318 319 317 300 294 302 308 315 318 319 320 319 322 324 325 329 328 324 319 310
355 338 333 335 331 331 336 341 357 17 28 47 71 108 109 87 78 65 48 44 27 15 28 21 14 18 18 19 21 17 19 21 17 18 22 26 35 41 44 43 40 40 35 21 17 20 357 324 359 9 12 13 17 20 18 18 22 20 20 26 35 32 360 330 329 324 315 312 309 304 292 286 296 301 309 314 315 317 318 318 321 321 321 324 324 323 319 311
348 340 339 335 336 347 356 13 33 38 53 67 76 105 104 91 87 76 50 39 32 28 39 29 22 23 18 18 20 18 21 18 13 18 20 26 34 36 38 40 38 39 39 31 20 29 62 15 360 6 12 11 16 17 14 21 33 15 15 23 24 17 342 302 306 296 288 302 306 279 270 283 289 296 302 307 311 316 318 318 319 318 319 322 321 321 317 312
350 346 344 345 4 18 27 45 44 47 64 63 60 85 92 93 89 74 51 41 38 33 37 30 21 28 26 19 18 16 18 16 17 19 15 22 34 33 34 37 36 40 43 44 40 30 46 1 356 2 11 11 12 14 13 22 27 9 12 16 4 4 353 305 304 299 283 288 306 311 298 292 293 293 294 301 311 316 318 318 317 317 319 320 320 319 316 312
352 352 3 24 41 39 45 51 41 53 57 37 66 86 88 90 79 68 54 46 42 36 41 37 20 25 28 21 16 15 17 18 23 28 17 18 28 27 30 38 40 43 47 51 48 36 23 297 336 351 359 358 2 7 9 20 29 29 20 14 4 359 355 322 310 313 305 292 303 312 305 298 297 290 289 301 314 319 319 317 315 316 316 317 317 316 314 312
1 18 38 50 49 39 45 54 48 53 48 41 85 87 84 83 73 63 53 47 42 37 40 41 31 26 26 21 15 14 20 24 28 34 22 15 20 21 27 37 42 45 50 54 54 47 45 266 297 336 352 353 357 4 1 3 16 27 25 18 15 6 327 328 315 306 314 303 301 310 307 300 291 277 287 300 312 318 313 309 313 316 316 315 315 314 312 312
33 52 58 56 51 43 51 61 55 50 38 59 82 84 79 75 68 59 51 45 41 39 39 39 33 27 25 22 16 13 17 25 30 35 28 18 23 23 25 35 41 44 49 53 54 44 39 33 299 331 354 3 355 357 358 351 357 7 11 14 18 14 320 326 319 288 302 302 301 309 310 318 310 284 291 299 306 309 308 309 313 314 314 314 314 313 312 312
63 64 61 56 54 53 54 56 52 43 50 69 77 81 77 71 63 56 50 44 41 40 39 35 30 28 24 19 16 14 14 21 25 30 36 35 32 28 30 36 40 42 44 47 47 37 31 31 325 326 354 10 343 335 347 348 348 354 359 358 2 6 336 317 296 265 287 300 310 307 302 314 307 292 295 301 304 308 310 312 314 314 315 315 314 313 314 316
69 64 65 61 57 57 55 53 49 51 65 72 75 75 72 68 61 55 49 43 41 38 35 31 28 25 20 17 16 13 13 21 21 25 38 41 40 38 36 37 39 39 40 41 39 33 31 26 339 314 338 336 325 333 339 342 340 342 346 344 345 355 348 324 298 283 289 281 282 291 293 298 296 294 300 304 306 310 312 314 316 317 317 317 317 318 318 318
71 74 73 65 58 57 53 50 51 54 65 74 74 71 70 65 60 54 46 42 39 35 31 27 25 22 18 17 16 13 14 18 19 25 39 45 50 50 42 39 39 36 38 40 34 28 28 20 356 300 303 312 322 335 332 330 333 333 334 334 329 330 332 325 310 310 304 285 274 275 275 283 290 295 302 304 306 308 309 312 316 319 321 321 321 321 319 317
84 82 73 62 61 56 42 51 60 59 67 74 72 71 68 62 57 52 45 42 36 31 28 23 21 19 17 15 14 14 14 11 15 23 36 49 51 50 44 39 37 36 39 40 31 25 23 17 358 293 291 302 303 317 321 323 332 330 321 322 319 304 293 295 300 298 290 282 280 279 275 275 285 293 299 303 306 308 311 316 319 321 323 323 321 319 317 316
84 81 72 58 56 49 36 57 66 64 69 74 74 71 65 58 54 48 43 39 33 29 25 20 18 15 14 15 14 14 14 10 10 17 33 52 50 50 45 37 36 39 39 36 29 27 25 16 2 314 303 305 295 312 325 325 331 320 307 312 317 311 297 293 303 293 269 273 279 274 280 287 291 296 303 311 314 313 315 318 317 318 319 319 318 317 315 315
66 69 69 61 55 48 56 66 66 65 70 74 72 68 62 56 51 44 40 36 30 26 20 18 16 12 12 13 11 12 14 13 11 15 34 49 52 51 43 35 36 37 37 35 27 22 18 12 9 343 322 327 315 317 314 310 315 310 308 314 317 314 303 292 296 288 272 282 279 264 279 294 301 302 306 313 312 308 309 311 312 315 317 317 316 314 313 314
57 65 71 67 60 57 68 69 65 65 69 71 70 66 59 54 48 41 37 32 26 23 18 15 14 11 11 11 9 10 8 10 15 23 37 50 52 45 39 35 34 32 31 29 20 15 8 2 1 345 321 315 305 296 297 302 308 307 308 311 311 308 298 285 279 274 278 291 288 279 281 292 302 306 308 310 306 302 306 312 316 318 318 316 315 313 314 316
66 68 68 70 66 62 67 69 66 65 67 67 68 65 57 51 45 37 34 29 24 21 15 14 14 10 10 8 6 6 2 5 14 19 35 48 34 30 31 28 29 27 22 18 15 10 360 349 345 336 324 316 308 300 298 302 309 310 309 311 310 303 292 282 277 276 282 283 286 294 296 292 300 308 308 308 308 307 311 316 319 319 318 317 317 316 317 318
70 69 66 73 77 72 72 72 67 66 66 64 66 63 54 49 43 35 31 26 23 20 14 13 13 8 8 7 3 3 1 359 4 11 24 30 23 25 17 11 20 20 14 12 8 0 352 343 338 335 331 322 313 314 311 307 310 312 313 314 309 296 289 289 287 284 280 270 283 301 302 294 301 309 308 306 307 308 314 320 320 319 318 318 319 319 319 318
69 72 70 73 81 81 77 74 70 68 66 62 62 60 52 46 41 34 29 24 21 18 13 11 9 6 7 5 1 1 1 356 355 1 6 6 14 21 12 5 2 2 6 6 0 354 348 342 337 335 334 330 325 328 325 318 316 316 315 313 304 293 290 293 294 291 280 276 289 299 296 296 308 314 309 307 307 309 316 321 320 319 319 320 321 320 319 317
67 74 70 68 81 84 78 75 72 69 66 61 58 56 48 42 38 30 25 23 18 14 11 8 7 6 5 3 0 359 360 358 353 354 357 343 335 356 8 3 349 347 355 356 352 351 348 342 336 335 336 337 338 335 331 326 320 315 314 311 303 299 295 293 297 297 286 286 296 296 291 301 315 316 303 305 308 312 318 321 320 320 320 321 321 319 317 315
62 71 69 63 76 83 80 78 74 68 65 60 54 50 44 37 34 28 22 20 15 11 8 6 5 5 2 360 358 357 360 0 353 353 355 338 312 304 321 337 341 342 343 344 346 348 346 342 339 339 337 332 330 331 331 327 316 307 315 325 317 310 305 301 303 302 295 296 300 295 293 304 314 310 304 307 311 314 318 319 319 320 321 320 320 319 316 314
58 66 68 61 72 83 82 79 77 69 61 57 50 45 40 34 29 25 20 17 12 8 6 4 3 2 359 356 355 356 358 356 347 343 348 347 329 299 298 314 327 334 333 335 341 343 345 343 341 340 332 318 321 329 331 327 315 305 325 329 323 317 312 307 308 307 302 299 297 295 300 307 310 306 305 310 314 316 318 319 319 320 321 321 320 318 315 313
Height
3140 3141 3141 3141 3141 3141 3141 3141 3141 3141 3141 3141 3141 3141 3140 3140 3140 3140 3140 3140 3139 3139 3139 3139 3138 3138 3138 3138 3138 3138 3137 3137 3137 3137 3137 3136 3136 3136 3136 3135 3135 3135 3135 3135 3135 3135 3135 3135 3135 3135 3135 3134 3134 3134 3134 3134 3134 3134 3135 3135 3135 3135 3135 3134 3133 3132 3131 3131 3128 3127 3128 3128 3126 3126 3126 3126 3125 3125 3124 3123 3123 3123 3122 3121 3121 3120 3120 3119
3141 3141 3141 3141 3142 3142 3142 3142 3142 3142 3142 3141 3141 3141 3141 3141 3141 3140 3140 3140 3140 3140 3139 3139 3139 3139 3138 3138 3138 3138 3138 3137 3137 3137 3136 3136 3136 3135 3135 3135 3135 3134 3134 3134 3134 3134 3134 3134 3134 3134 3134 3134 3133 3133 3133 3133 3133 3133 3134 3134 3134 3134 3133 3131 3131 3130 3129 3129 3127 3126 3126 3126 3125 3124 3124 3124 3123 3123 3122 3121 3120 3120 3119 3119 3119 3118 3118 3117
3142 3142 3142 3142 3142 3143 3143 3143 3142 3142 3142 3142 3142 3141 3141 3141 3141 3141 3140 3140 3140 3140 3139 3139 3139 3138 3138 3138 3138 3138 3137 3137 3136 3136 3136 3136 3135 3135 3135 3134 3134 3134 3134 3134 3133 3133 3133 3133 3133 3133 3133 3133 3133 3132 3132 3132 3132 3132 3132 3133 3132 3132 3131 3129 3128 3128 3127 3127 3126 3125 3124 3124 3124 3123 3122 3122 3122 3122 3120 3118 3118 3118 3117 3117 3117 3116 3115 3115
3143 3143 3144 3144 3143 3143 3143 3143 3143 3143 3143 3142 3142 3142 3141 3141 3141 3141 3140 3140 3140 3140 3139 3139 3139 3138 3138 3138 3137 3137 3137 3136 3136 3135 3135 3135 3135 3134 3134 3134 3133 3133 3133 3133 3133 3132 3132 3132 3132 3132 3132 3132 3132 3132 3131 3131 3131 3131 3130 3131 3131 3129 3129 3127 3126 3126 3125 3125 3124 3123 3123 3122 3122 3121 3121 3120 3121 3120 3117 3117 3117 3116 3114 3114 3114 3114 3113 3112
3144 3144 3145 3145 3145 3144 3144 3144 3144 3143 3143 3143 3142 3142 3142 3142 3141 3141 3140 3140 3140 3139 3139 3139 3139 3138 3138 3138 3137 3137 3137 3136 3135 3135 3135 3134 3134 3134 3133 3133 3133 3132 3132 3132 3132 3131 3131 3131 3131 3131 3131 3131 3130 3130 3130 3129 3130 3129 3128 3129 3128 3128 3127 3125 3124 3124 3123 3123 3122 3121 3121 3120 3119 3119 3119 3117 3117 3117 3116 3116 3115 3114 3113 3112 3112 3111 3111 3110
3145 3145 3145 3145 3145 3145 3145 3144 3144 3144 3143 3143 3143 3142 3142 3142 3141 3141 3140 3140 3140 3139 3139 3138 3138 3138 3138 3137 3137 3137 3136 3136 3135 3135 3134 3134 3133 3133 3132 3132 3132 3131 3131 3131 3131 3131 3130 3130 3130 3130 3130 3130 3130 3129 3128 3128 3128 3127 3127 3126 3126 3126 3125 3123 3123 3122 3121 3121 3120 3120 3119 3118 3118 3117 3115 3115 3114 3114 3114 3114 3113 3112 3111 3110 3110 3109 3108 3107
3146 3146 3146 3146 3145 3145 3145 3145 3144 3144 3144 3143 3143 3142 3142 3142 3141 3141 3140 3140 3139 3139 3139 3138 3138 3138 3137 3137 3136 3136 3135 3135 3134 3134 3133 3133 3132 3132 3131 3131 3130 3130 3130 3130 3130 3130 3129 3129 3129 3129 3129 3129 3128 3128 3127 3127 3126 3126 3126 3124 3124 3124 3123 3121 3121 3120 3119 3119 3118 3118 3117 3116 3116 3114 3112 3112 3112 3112 3111 3111 3110 3109 3108 3107 3107 3107 3106 3105
3146 3146 3146 3146 3146 3145 3145 3145 3144 3144 3143 3143 3143 3142 3142 3141 3141 3140 3140 3139 3139 3139 3138 3138 3137 3137 3137 3136 3136 3135 3134 3134 3133 3133 3132 3132 3131 3131 3130 3130 3129 3129 3129 3129 3129 3129 3129 3128 3128 3128 3128 3128 3127 3126 3126 3125 3124 3124 3124 3123 3122 3122 3121 3120 3119 3118 3117 3117 3116 3115 3114 3114 3114 3112 3109 3109 3110 3109 3108 3108 3107 3106 3106 3105 3104 3104 3104 3103
3147 3147 3146 3146 3146 3145 3145 3144 3144 3143 3143 3142 3142 3142 3141 3141 3140 3140 3139 3138 3138 3138 3137 3137 3137 3136 3136 3135 3135 3134 3133 3133 3133 3132 3131 3130 3130 3129 3129 3129 3128 3128 3128 3127 3127 3127 3127 3127 3127 3127 3127 3126 3125 3125 3124 3124 3123 3122 3122 3121 3120 3119 3119 3118 3117 3116 3115 3114 3114 3113 3112 3111 3111 3110 3107 3107 3107 3106 3106 3105 3104 3104 3103 3103 3102 3102 3101 3100
3147 3147 3146 3146 3146 3145 3145 3144 3144 3143 3143 3142 3142 3141 3141 3140 3139 3139 3138 3137 3137 3137 3136 3136 3136 3135 3135 3134 3134 3133 3132 3132 3131 3131 3130 3129 3129 3128 3128 3127 3127 3127 3127 3126 3126 3126 3126 3126 3126 3125 3125 3124 3124 3123 3123 3122 3122 3120 3120 3119 3119 3117 3116 3116 3115 3114 3113 3112 3112 3111 3110 3109 3109 3107 3105 3105 3105 3104 3103 3103 3102 3101 3101 3100 3100 3099 3099 3098
3147 3147 3147 3146 3146 3145 3145 3144 3144 3143 3142 3142 3141 3141 3140 3140 3139 3138 3137 3136 3136 3135 3135 3135 3135 3134 3134 3133 3133 3132 3132 3131 3130 3130 3129 3128 3128 3127 3127 3126 3126 3126 3125 3125 3125 3124 3124 3124 3124 3124 3123 3122 3122 3121 3121 3120 3120 3119 3118 3117 3116 3115 3114 3113 3113 3112 3111 3110 3110 3109 3108 3107 3106 3105 3104 3104 3103 3102 3102 3101 3100 3099 3099 3098 3098 3097 3096 3095
3147 3147 3147 3146 3146 3145 3145 3144 3144 3143 3143 3142 3141 3141 3140 3139 3138 3138 3137 3136 3135 3135 3134 3134 3134 3133 3133 3133 3132 3131 3131 3130 3129 3129 3128 3127 3127 3126 3126 3125 3125 3124 3124 3124 3124 3123 3123 3123 3122 3122 3121 3121 3120 3119 3118 3118 3117 3116 3116 3115 3114 3113 3112 3111 3111 3110 3110 3109 3108 3108 3106 3104 3103 3103 3102 3102 3101 3101 3100 3099 3098 3098 3097 3097 3096 3095 3094 3093
3148 3147 3147 3146 3146 3145 3145 3144 3144 3143 3143 3142 3141 3141 3140 3139 3138 3137 3136 3135 3135 3134 3134 3133 3133 3133 3132 3132 3131 3130 3130 3129 3128 3128 3127 3126 3126 3125 3125 3124 3124 3123 3123 3123 3122 3122 3122 3121 3121 3120 3120 3119 3118 3117 3116 3116 3115 3114 3114 3113 3112 3112 3111 3109 3109 3109 3108 3107 3106 3106 3106 3102 3101 3102 3101 3100 3100 3099 3098 3098 3097 3097 3096 3095 3095 3094 3093 3092
3148 3147 3147 3146 3146 3145 3145 3144 3144 3143 3143 3142 3141 3140 3140 3139 3138 3137 3136 3135 3135 3134 3133 3133 3133 3132 3131 3131 3130 3129 3129 3128 3127 3127 3126 3125 3125 3124 3123 3123 3123 3122 3122 3122 3121 3121 3120 3120 3119 3119 3118 3117 3116 3116 3114 3113 3113 3112 3112 3111 3111 3112 3111 3108 3108 3108 3106 3105 3104 3105 3105 3102 3100 3100 3100 3099 3098 3097 3097 3096 3096 3095 3094 3093 3093 3092 3091 3090
3148 3147 3147 3146 3146 3145 3144 3144 3144 3143 3142 3142 3141 3140 3139 3138 3137 3136 3136 3135 3134 3134 3133 3132 3132 3131 3131 3130 3129 3128 3128 3127 3126 3126 3125 3124 3123 3123 3122 3122 3121 3121 3121 3120 3120 3119 3119 3118 3118 3117 3116 3115 3114 3114 3113 3112 3111 3110 3111 3110 3110 3111 3110 3108 3107 3106 3105 3104 3103 3103 3104 3101 3099 3100 3099 3098 3097 3096 3096 3094 3094 3093 3092 3091 3090 3089 3089 3088
3148 3147 3147 3146 3145 3145 3144 3144 3143 3143 3142 3141 3140 3140 3139 3138 3137 3136 3135 3135 3134 3133 3132 3132 3131 3131 3130 3130 3129 3128 3127 3126 3126 3125 3124 3123 3122 3122 3121 3121 3120 3120 3119 3119 3118 3118 3117 3117 3116 3115 3115 3114 3113 3112 3112 3111 3110 3110 3110 3110 3110 3109 3110 3108 3105 3105 3104 3103 3102 3102 3102 3100 3098 3099 3098 3097 3096 3094 3093 3092 3091 3090 3089 3088 3087 3086 3086 3085
3147 3147 3146 3146 3145 3145 3144 3143 3143 3142 3141 3140 3140 3139 3138 3138 3137 3136 3135 3134 3133 3133 3132 3132 3131 3130 3130 3130 3129 3128 3127 3126 3125 3124 3124 3123 3122 3121 3121 3120 3119 3119 3118 3118 3117 3117 3116 3116 3115 3114 3114 3112 3111 3111 3111 3111 3110 3109 3109 3109 3109 3108 3108 3107 3105 3103 3103 3102 3101 3100 3099 3099 3098 3097 3097 3095 3094 3092 3091 3090 3088 3087 3086 3085 3084 3083 3083 3082
3147 3147 3146 3146 3145 3144 3144 3143 3142 3142 3141 3140 3139 3138 3138 3137 3136 3136 3135 3134 3133 3132 3132 3132 3131 3130 3130 3129 3129 3128 3127 3126 3125 3124 3123 3122 3121 3121 3120 3119 3118 3118 3117 3117 3116 3116 3115 3114 3114 3114 3113 3111 3110 3111 3111 3110 3110 3109 3108 3108 3108 3107 3107 3106 3104 3103 3102 3101 3101 3099 3097 3097 3096 3095 3094 3093 3092 3091 3089 3088 3086 3085 3084 3083 3082 3081 3080 3080
3148 3147 3146 3146 3145 3145 3144 3143 3142 3141 3140 3139 3139 3138 3137 3137 3136 3135 3134 3133 3133 3133 3132 3132 3131 3131 3131 3129 3128 3127 3126 3125 3124 3123 3122 3121 3120 3120 3119 3118 3118 3117 3116 3116 3115 3115 3114 3113 3113 3113 3112 3111 3110 3110 3110 3110 3109 3109 3108 3107 3107 3107 3107 3105 3103 3102 3101 3100 3099 3098 3097 3095 3094 3094 3093 3092 3090 3089 3088 3086 3085 3083 3082 3081 3080 3080 3079 3079
3148 3147 3147 3146 3145 3145 3144 3143 3142 3141 3140 3139 3139 3138 3137 3136 3135 3135 3134 3134 3133 3133 3132 3132 3131 3131 3130 3129 3128 3127 3126 3124 3123 3122 3122 3121 3120 3119 3118 3117 3117 3116 3116 3115 3114 3114 3113 3112 3112 3112 3111 3111 3110 3110 3110 3109 3108 3108 3107 3107 3106 3106 3106 3104 3102 3101 3101 3100 3097 3095 3095 3094 3093 3093 3091 3090 3089 3088 3087 3085 3084 3083 3082 3081 3080 3079 3078 3078
3148 3148 3147 3146 3146 3145 3144 3143 3143 3142 3141 3140 3139 3138 3137 3136 3135 3135 3134 3134 3134 3133 3133 3132 3131 3131 3130 3129 3128 3127 3125 3124 3123 3122 3121 3120 3119 3119 3118 3117 3117 3116 3116 3115 3114 3113 3112 3112 3112 3111 3111 3110 3110 3109 3109 3108 3107 3107 3106 3106 3106 3105 3104 3102 3101 3100 3099 3098 3095 3092 3093 3092 3092 3092 3090 3089 3088 3087 3086 3085 3084 3083 3082 3081 3080 3079 3078 3077
3149 3148 3148 3147 3146 3145 3145 3144 3143 3142 3141 3140 3139 3138 3137 3136 3136 3135 3135 3134 3134 3133 3133 3132 3131 3131 3130 3129 3128 3126 3125 3124 3123 3122 3121 3120 3119 3118 3118 3117 3117 3116 3115 3114 3114 3114 3112 3112 3112 3111 3111 3110 3110 3109 3109 3107 3107 3107 3106 3106 3106 3104 3102 3100 3099 3098 3096 3096 3094 3091 3091 3091 3090 3090 3089 3089 3088 3087 3086 3085 3084 3083 3082 3081 3079 3079 3077 3077
3149 3148 3148 3147 3146 3146 3145 3144 3143 3142 3141 3140 3139 3138 3137 3136 3136 3135 3135 3135 3134 3133 3133 3132 3132 3131 3130 3129 3127 3126 3125 3125 3124 3123 3122 3120 3119 3118 3118 3117 3116 3116 3115 3115 3115 3114 3113 3113 3112 3112 3111 3110 3110 3109 3108 3107 3106 3106 3106 3105 3104 3103 3101 3099 3098 3096 3095 3095 3094 3092 3089 3089 3089 3089 3088 3088 3088 3087 3086 3085 3084 3083 3082 3080 3079 3078 3077 3076
3149 3149 3148 3147 3146 3146 3145 3144 3143 3142 3141 3140 3139 3138 3137 3137 3136 3135 3135 3135 3134 3134 3134 3133 3132 3131 3130 3129 3127 3126 3126 3125 3124 3123 3122 3121 3119 3119 3118 3117 3116 3116 3115 3114 3114 3114 3113 3113 3113 3112 3111 3110 3110 3109 3108 3108 3107 3106 3105 3104 3103 3101 3100 3099 3097 3095 3094 3093 3094 3092 3089 3088 3088 3087 3087 3088 3087 3086 3085 3085 3084 3082 3081 3080 3079 3078 3077 3076
3149 3149 3148 3147 3146 3146 3145 3144 3143 3142 3141 3140 3140 3139 3138 3137 3136 3135 3135 3135 3135 3134 3134 3133 3132 3131 3130 3129 3128 3127 3126 3126 3125 3123 3122 3121 3120 3119 3118 3118 3117 3116 3115 3115 3114 3113 3113 3114 3113 3112 3111 3111 3110 3109 3107 3107 3107 3106 3104 3103 3102 3100 3099 3097 3095 3094 3093 3092 3093 3093 3090 3089 3089 3087 3087 3087 3087 3086 3085 3084 3084 3082 3081 3080 3079 3077 3076 3075
3149 3148 3148 3147 3147 3146 3144 3143 3143 3142 3141 3140 3140 3139 3137 3137 3136 3135 3135 3135 3135 3135 3134 3133 3132 3132 3131 3130 3128 3127 3127 3126 3125 3124 3122 3121 3120 3119 3119 3118 3117 3117 3116 3115 3114 3114 3114 3114 3114 3113 3112 3111 3110 3109 3107 3106 3106 3106 3105 3103 3101 3099 3097 3096 3095 3094 3093 3093 3093 3093 3092 3090 3089 3088 3087 3086 3086 3086 3085 3084 3083 3082 3081 3080 3078 3077 3076 3074
3149 3148 3148 3147 3146 3145 3144 3143 3143 3142 3141 3140 3139 3138 3137 3137 3136 3136 3135 3135 3136 3136 3135 3134 3133 3132 3131 3130 3129 3128 3127 3127 3126 3125 3123 3122 3121 3120 3119 3119 3118 3117 3116 3115 3115 3115 3115 3115 3114 3113 3112 3111 3110 3108 3108 3106 3106 3106 3104 3102 3100 3098 3096 3095 3094 3093 3093 3093 3092 3092 3092 3090 3088 3088 3087 3085 3085 3084 3084 3083 3082 3081 3080 3079 3077 3076 3075 3074
3149 3148 3148 3147 3146 3145 3144 3143 3143 3142 3141 3140 3139 3137 3137 3136 3135 3135 3135 3136 3138 3138 3136 3135 3134 3133 3132 3131 3130 3129 3128 3128 3126 3125 3124 3122 3121 3120 3120 3119 3118 3117 3116 3116 3116 3116 3116 3115 3114 3113 3112 3111 3109 3109 3108 3107 3106 3105 3103 3101 3099 3097 3096 3095 3094 3094 3093 3092 3091 3091 3091 3089 3087 3088 3087 3086 3085 3083 3082 3082 3081 3080 3079 3077 3076 3075 3074 3072
3149 3148 3147 3147 3146 3145 3144 3143 3142 3141 3140 3139 3138 3137 3136 3135 3135 3135 3135 3138 3140 3139 3137 3136 3135 3134 3133 3131 3130 3129 3129 3128 3126 3125 3124 3123 3122 3121 3120 3119 3119 3118 3117 3116 3116 3116 3116 3115 3114 3113 3111 3110 3110 3109 3109 3107 3106 3105 3102 3099 3098 3097 3096 3094 3094 3094 3092 3091 3091 3091 3091 3090 3089 3089 3089 3088 3087 3084 3081 3081 3080 3079 3077 3076 3075 3073 3072 3071
3148 3147 3147 3146 3145 3145 3144 3143 3142 3141 3140 3138 3137 3136 3136 3135 3135 3135 3136 3139 3140 3139 3138 3137 3136 3135 3134 3133 3132 3130 3129 3128 3127 3126 3125 3124 3123 3122 3121 3120 3119 3118 3118 3117 3117 3116 3116 3115 3114 3113 3112 3111 3111 3110 3108 3107 3106 3103 3101 3098 3097 3096 3096 3094 3094 3094 3092 3090 3092 3092 3092 3092 3090 3088 3089 3088 3087 3085 3082 3080 3079 3078 3076 3074 3073 3072 3071 3069
3148 3147 3146 3146 3145 3144 3143 3142 3141 3140 3139 3138 3137 3136 3136 3135 3135 3135 3138 3141 3140 3139 3139 3138 3137 3136 3134 3133 3132 3131 3130 3129 3128 3127 3126 3125 3124 3123 3122 3120 3119 3118 3118 3118 3117 3117 3116 3115 3115 3114 3113 3112 3111 3109 3108 3107 3105 3103 3101 3099 3097 3096 3095 3095 3093 3093 3093 3091 3092 3093 3092 3091 3089 3087 3087 3086 3085 3084 3082 3080 3078 3076 3075 3073 3072 3071 3069 3068
3147 3147 3146 3145 3145 3144 3143 3141 3140 3139 3138 3137 3136 3136 3136 3136 3136 3138 3141 3141 3140 3140 3139 3138 3137 3136 3135 3134 3132 3131 3130 3129 3128 3127 3126 3125 3124 3123 3122 3121 3120 3120 3120 3119 3118 3117 3116 3116 3115 3114 3113 3112 3111 3110 3109 3108 3106 3104 3101 3100 3099 3098 3098 3097 3095 3094 3094 3093 3093 3093 3092 3090 3088 3087 3086 3085 3084 3083 3081 3079 3077 3075 3073 3071 3070 3069 3068 3066
3147 3147 3146 3145 3144 3143 3142 3141 3140 3138 3137 3137 3136 3136 3136 3137 3139 3142 3142 3141 3141 3141 3139 3139 3138 3136 3135 3134 3133 3132 3131 3129 3129 3127 3127 3126 3125 3124 3123 3122 3122 3121 3121 3120 3119 3118 3116 3116 3116 3114 3113 3113 3112 3111 3110 3109 3107 3105 3104 3104 3103 3102 3103 3102 3097 3096 3096 3094 3093 3093 3091 3089 3087 3086 3085 3084 3082 3081 3079 3078 3075 3073 3071 3069 3068 3067 3066 3064
3147 3147 3146 3145 3144 3143 3141 3140 3139 3138 3137 3137 3136 3136 3136 3138 3142 3143 3142 3142 3142 3140 3140 3139 3138 3137 3136 3135 3134 3132 3131 3130 3129 3128 3128 3127 3126 3125 3125 3124 3123 3122 3121 3120 3120 3119 3117 3117 3116 3115 3114 3114 3113 3112 3112 3110 3109 3108 3107 3107 3107 3107 3107 3105 3100 3099 3098 3094 3092 3091 3090 3088 3086 3084 3083 3082 3080 3079 3077 3076 3074 3072 3070 3069 3067 3065 3064 3062
3147 3147 3146 3145 3144 3142 3141 3140 3139 3138 3138 3137 3137 3137 3137 3140 3143 3143 3143 3143 3142 3141 3140 3139 3138 3137 3137 3135 3134 3133 3132 3131 3130 3129 3128 3127 3126 3126 3125 3124 3124 3123 3121 3121 3121 3120 3119 3119 3118 3117 3117 3116 3115 3114 3113 3111 3110 3110 3109 3108 3108 3108 3108 3106 3102 3100 3099 3095 3091 3089 3087 3086 3084 3083 3081 3079 3079 3077 3076 3074 3072 3070 3068 3067 3065 3063 3061 3059
3147 3146 3145 3144 3143 3142 3141 3140 3140 3139 3138 3138 3138 3138 3139 3142 3143 3143 3143 3143 3142 3141 3140 3140 3139 3138 3138 3136 3135 3134 3133 3132 3130 3130 3129 3128 3127 3127 3126 3125 3125 3123 3122 3121 3121 3121 3120 3120 3119 3118 3117 3116 3115 3115 3113 3112 3111 3110 3109 3109 3108 3107 3107 3105 3102 3100 3098 3095 3089 3087 3086 3084 3082 3080 3078 3078 3077 3075 3074 3071 3070 3068 3066 3064 3062 3059 3058 3055
3147 3146 3145 3144 3144 3143 3142 3141 3141 3140 3139 3139 3139 3140 3142 3143 3144 3144 3144 3143 3142 3142 3141 3140 3140 3139 3138 3137 3136 3134 3133 3132 3131 3131 3130 3129 3128 3128 3127 3126 3125 3124 3123 3123 3122 3122 3121 3121 3119 3118 3117 3117 3116 3114 3113 3113 3112 3111 3110 3109 3107 3106 3106 3105 3103 3099 3097 3094 3088 3086 3085 3083 3081 3078 3076 3076 3075 3073 3071 3069 3067 3065 3064 3061 3059 3057 3054 3051
3147 3146 3146 3145 3144 3144 3143 3142 3141 3140 3140 3140 3140 3141 3143 3144 3144 3144 3144 3143 3143 3142 3141 3140 3140 3139 3138 3137 3136 3135 3134 3133 3132 3131 3130 3129 3129 3129 3128 3127 3126 3125 3124 3123 3123 3123 3122 3121 3120 3119 3118 3117 3116 3115 3114 3113 3111 3111 3110 3109 3107 3107 3106 3105 3103 3101 3098 3094 3088 3085 3084 3082 3080 3078 3076 3075 3073 3072 3070 3068 3065 3063 3061 3059 3056 3053 3050 3047
3148 3147 3146 3146 3145 3145 3144 3143 3142 3141 3141 3141 3141 3143 3144 3145 3144 3144 3144 3143 3143 3142 3141 3141 3140 3140 3139 3138 3136 3135 3134 3133 3132 3131 3131 3130 3130 3129 3128 3127 3127 3126 3125 3124 3123 3123 3122 3121 3121 3119 3118 3117 3116 3116 3115 3113 3111 3110 3110 3109 3108 3108 3107 3105 3104 3102 3100 3096 3090 3086 3083 3080 3078 3077 3075 3074 3072 3071 3069 3067 3064 3061 3058 3055 3052 3049 3046 3043
3148 3148 3147 3147 3146 3146 3144 3143 3143 3143 3143 3143 3143 3144 3145 3145 3145 3145 3144 3144 3143 3142 3142 3141 3141 3140 3139 3138 3137 3135 3134 3133 3132 3132 3131 3130 3130 3129 3129 3128 3127 3126 3125 3124 3124 3123 3122 3122 3121 3120 3118 3117 3116 3116 3115 3113 3112 3111 3110 3109 3108 3107 3106 3104 3102 3101 3100 3097 3093 3089 3083 3079 3077 3075 3073 3072 3070 3068 3067 3064 3061 3058 3055 3052 3049 3046 3042 3039
3149 3149 3148 3148 3147 3146 3145 3145 3145 3145 3143 3144 3145 3145 3146 3146 3145 3145 3145 3144 3144 3143 3142 3142 3141 3140 3139 3138 3137 3136 3135 3134 3133 3132 3131 3131 3130 3130 3129 3128 3127 3127 3126 3124 3124 3123 3122 3122 3121 3120 3119 3118 3116 3115 3113 3113 3112 3110 3110 3108 3107 3107 3106 3105 3102 3100 3100 3098 3095 3091 3085 3078 3075 3073 3071 3069 3067 3065 3063 3060 3057 3054 3051 3048 3045 3041 3038 3035
3150 3150 3149 3149 3148 3147 3146 3147 3147 3146 3145 3145 3146 3146 3146 3146 3146 3146 3145 3145 3144 3143 3143 3142 3141 3140 3139 3138 3137 3136 3135 3134 3133 3132 3132 3131 3131 3130 3130 3129 3128 3127 3126 3125 3124 3124 3123 3122 3121 3120 3119 3117 3115 3114 3113 3112 3110 3109 3108 3107 3107 3106 3105 3105 3103 3100 3099 3096 3094 3092 3086 3077 3072 3071 3069 3067 3065 3063 3060 3057 3054 3050 3047 3043 3040 3037 3034 3031
3152 3151 3150 3150 3149 3148 3148 3147 3147 3147 3146 3147 3147 3147 3147 3147 3147 3146 3146 3145 3145 3144 3143 3142 3141 3140 3139 3138 3137 3136 3135 3134 3133 3133 3132 3132 3131 3131 3130 3129 3128 3127 3126 3125 3124 3124 3123 3122 3120 3119 3117 3115 3114 3112 3111 3110 3109 3107 3106 3105 3106 3105 3104 3104 3103 3100 3098 3094 3091 3090 3083 3075 3072 3070 3068 3066 3062 3059 3056 3052 3049 3044 3041 3039 3036 3033 3031 3027
3153 3152 3151 3151 3150 3149 3149 3148 3148 3148 3148 3148 3148 3148 3148 3148 3147 3147 3147 3146 3145 3144 3143 3142 3141 3140 3139 3138 3137 3136 3135 3134 3134 3133 3132 3132 3132 3131 3130 3130 3129 3127 3126 3125 3125 3124 3123 3122 3121 3119 3116 3113 3112 3111 3110 3109 3108 3107 3105 3103 3103 3103 3102 3101 3100 3099 3096 3091 3090 3088 3079 3073 3071 3068 3065 3063 3058 3053 3050 3048 3045 3042 3038 3036 3033 3030 3026 3023
3154 3153 3152 3151 3151 3151 3150 3149 3150 3149 3149 3149 3149 3149 3149 3149 3148 3148 3147 3146 3146 3145 3144 3143 3142 3141 3140 3138 3137 3136 3135 3134 3134 3133 3133 3132 3132 3131 3131 3130 3129 3128 3127 3126 3125 3124 3123 3122 3121 3120 3118 3115 3113 3112 3111 3109 3108 3106 3104 3101 3100 3100 3099 3099 3098 3097 3094 3089 3088 3085 3076 3069 3069 3067 3064 3062 3058 3052 3049 3047 3044 3041 3037 3033 3030 3026 3023 3019
3155 3154 3153 3152 3152 3152 3151 3150 3151 3150 3150 3150 3150 3150 3150 3149 3149 3149 3148 3147 3146 3145 3144 3143 3142 3141 3139 3138 3137 3136 3135 3135 3134 3133 3133 3132 3132 3131 3131 3130 3129 3128 3127 3126 3125 3123 3122 3121 3120 3120 3119 3117 3115 3113 3111 3109 3107 3105 3103 3100 3099 3098 3097 3097 3096 3094 3092 3087 3083 3080 3075 3068 3065 3064 3062 3059 3056 3052 3048 3045 3041 3037 3034 3030 3027 3023 3019 3015
3156 3155 3154 3153 3153 3153 3152 3152 3152 3152 3151 3151 3151 3151 3151 3150 3150 3149 3148 3148 3146 3145 3144 3143 3142 3140 3139 3138 3137 3136 3135 3135 3134 3133 3133 3132 3132 3131 3131 3130 3129 3128 3127 3126 3125 3123 3122 3121 3120 3119 3117 3115 3113 3112 3110 3107 3105 3103 3101 3099 3097 3096 3094 3094 3092 3090 3089 3086 3078 3075 3074 3068 3061 3061 3059 3055 3051 3047 3044 3041 3037 3033 3030 3026 3023 3019 3015 3010
3157 3156 3155 3154 3154 3154 3154 3153 3153 3153 3153 3153 3152 3152 3151 3151 3150 3150 3149 3148 3147 3145 3144 3143 3142 3141 3140 3138 3137 3136 3135 3135 3134 3133 3133 3132 3132 3131 3130 3130 3129 3128 3127 3125 3124 3123 3122 3121 3119 3117 3115 3113 3111 3110 3108 3106 3103 3100 3098 3096 3095 3093 3091 3090 3088 3086 3086 3083 3074 3070 3070 3065 3060 3058 3056 3052 3048 3044 3041 3038 3034 3030 3026 3022 3019 3015 3010 3007
3158 3157 3156 3156 3155 3155 3155 3154 3154 3154 3154 3154 3153 3152 3152 3152 3151 3150 3149 3148 3147 3145 3144 3143 3142 3141 3140 3139 3137 3136 3136 3135 3134 3134 3133 3132 3132 3131 3130 3129 3128 3127 3127 3125 3124 3123 3121 3120 3118 3115 3113 3111 3110 3108 3106 3103 3101 3097 3095 3094 3092 3090 3089 3086 3084 3083 3081 3077 3071 3068 3065 3060 3058 3056 3051 3048 3044 3040 3037 3034 3030 3026 3022 3018 3015 3010 3006 3003
3159 3158 3157 3157 3156 3156 3155 3155 3155 3155 3155 3155 3154 3153 3153 3152 3151 3150 3149 3148 3147 3145 3144 3143 3142 3141 3140 3139 3138 3137 3136 3135 3134 3134 3133 3132 3131 3131 3130 3129 3128 3127 3126 3125 3124 3122 3120 3119 3117 3114 3111 3109 3107 3105 3103 3101 3098 3095 3092 3091 3090 3088 3086 3084 3081 3080 3077 3073 3069 3067 3061 3055 3055 3054 3049 3045 3041 3037 3033 3029 3025 3022 3018 3014 3010 3006 3002 2999
3160 3159 3158 3158 3157 3156 3156 3156 3156 3156 3156 3155 3154 3154 3153 3152 3151 3150 3149 3148 3147 3145 3144 3143 3142 3141 3140 3138 3137 3136 3135 3135 3134 3133 3133 3132 3131 3130 3130 3129 3128 3126 3125 3124 3123 3121 3119 3117 3115 3113 3110 3107 3105 3103 3101 3098 3095 3092 3090 3089 3087 3085 3083 3081 3078 3077 3074 3070 3067 3064 3058 3053 3052 3050 3044 3040 3037 3033 3029 3025 3020 3017 3013 3009 3005 3001 2998 2994
3161 3160 3159 3159 3158 3157 3157 3157 3157 3157 3157 3156 3155 3154 3153 3152 3151 3150 3149 3148 3146 3145 3144 3142 3141 3140 3139 3138 3137 3136 3135 3134 3134 3133 3132 3131 3130 3130 3129 3128 3127 3126 3124 3123 3121 3120 3118 3116 3114 3112 3109 3106 3104 3102 3099 3096 3092 3088 3087 3086 3084 3082 3080 3077 3075 3073 3071 3068 3064 3059 3054 3050 3049 3045 3040 3035 3032 3029 3024 3021 3016 3012 3008 3005 3001 2997 2994 2990